Location: Plymouth Village
(34.0436°N, 117.1717°W)
Time: 01:47:22
(UTC+00:00)

Chandra Rocket (1) - Pass Details

Date: 10 September 2024
Orbit: 283 x 10834 km, 28.4° (Epoch: 06 October)

Event Time Altitude Azimuth Distance (km) Brightness Sun altitude
Exits shadow 12:16:14 26° 231° (SW) 1,125 2.9 -15.6°
Maximum altitude 12:18:00 45° 172° (S) 990 3.0 -15.2°
Drops below altitude 10° 12:26:30 10° 103° (ESE) 4,284 7.3 -13.5°
Sets 12:33:07 0° 99° (E) 6,881 8.7 -12.2°
